Hourly Data Report for May 18, 2006

TORONTO CITY
ONTARIO

43°40'00.000" N
79°24'00.000" W
112.50 m
6158355
71508
XTO

Download Data

Hourly Data (May 2006)
Hourly Data Report for May 18, 2006
TIME
LST
Temp Definition
°C
Dew Point Definition
°C
Rel Hum Definition
%
Precip. Amount Definition
mm

Wind Dir Definition
10's deg

Wind Spd Definition
km/h
Visibility Definition
km
Stn Press Definition
kPa
Hmdx Definition


Wind Chill Definition


Weather Definition


00:00 13.2 11.2 88   LegendMM LegendMM   98.20     LegendNANA
01:00 12.5 10.9 90   LegendMM LegendMM   98.12     LegendNANA
02:00 12.5 11.3 92   LegendMM LegendMM   98.09     LegendNANA
03:00 11.7 10.7 94   LegendMM LegendMM   98.05     LegendNANA
04:00 11.9 11.0 94   LegendMM LegendMM   98.04     LegendNANA
05:00 11.9 10.9 94   LegendMM LegendMM   98.00     LegendNANA
06:00 11.9 11.1 95   LegendMM LegendMM   97.98     LegendNANA
07:00 12.8 11.7 93   LegendMM LegendMM   97.94     LegendNANA
08:00 13.3 11.9 91   LegendMM LegendMM   97.95     LegendNANA
09:00 12.2 11.7 97   LegendMM LegendMM   97.93     LegendNANA
10:00 12.0 11.8 99   LegendMM LegendMM   97.90     LegendNANA
11:00 12.1 11.9 99   LegendMM LegendMM   97.90     LegendNANA
12:00 13.6 11.9 89   LegendMM LegendMM   97.93     LegendNANA
13:00 14.6 10.8 78   LegendMM LegendMM   97.96     LegendNANA
14:00 12.8 10.4 85   LegendMM LegendMM   98.02     LegendNANA
15:00 13.0 11.6 91   LegendMM LegendMM   98.09     LegendNANA
16:00 13.1 11.3 89   LegendMM LegendMM   98.16     LegendNANA
17:00 12.9 9.8 81   LegendMM LegendMM   98.25     LegendNANA
18:00 13.1 9.1 77   LegendMM LegendMM   98.33     LegendNANA
19:00 12.8 8.0 73   LegendMM LegendMM   98.41     LegendNANA
20:00 12.4 7.6 72   LegendMM LegendMM   98.46     LegendNANA
21:00 11.5 7.7 77   LegendMM LegendMM   98.53     LegendNANA
22:00 10.8 7.5 80   LegendMM LegendMM   98.58     LegendNANA
23:00 9.9 7.3 84   LegendMM LegendMM   98.60     LegendNANA

Notes on Data Quality.

Legend

  • E = Estimated
  • M = Missing
  • NA = Not Available*
  • [empty] = Indicates an unobserved value
Date modified: